TimePDT,TemperatureF,Dew PointF,Humidity,Sea Level PressureIn,VisibilityMPH,Wind Direction,Wind SpeedMPH,Gust SpeedMPH,PrecipitationIn,Events,Conditions,WindDirDegrees,DateUTC
12:50 AM,41.0,37.4,87,29.63,6.0,ESE,3.5,-,0.05,Rain,Light Rain,110,2012-03-20 07:50:00
12:53 AM,41.0,37.9,89,29.64,7.0,ESE,4.6,-,0.05,Rain,Light Rain,120,2012-03-20 07:53:00
1:15 AM,41.0,37.4,87,29.61,9.0,ESE,4.6,-,0.02,Rain,Light Rain,120,2012-03-20 08:15:00
1:53 AM,41.0,37.9,89,29.60,10.0,SSE,5.8,-,0.02,Rain,Light Rain,160,2012-03-20 08:53:00
2:53 AM,41.0,37.9,89,29.58,10.0,SSE,6.9,-,0.01,Rain,Light Rain,150,2012-03-20 09:53:00
3:53 AM,42.1,39.0,89,29.55,10.0,SE,5.8,-,0.00,,Overcast,130,2012-03-20 10:53:00
4:53 AM,46.0,39.0,76,29.56,10.0,South,17.3,26.5,N/A,,Overcast,170,2012-03-20 11:53:00
5:53 AM,45.0,39.0,80,29.59,10.0,South,12.7,21.9,0.00,,Overcast,170,2012-03-20 12:53:00
6:53 AM,45.0,37.9,76,29.63,10.0,SW,9.2,19.6,0.00,Rain,Light Rain,230,2012-03-20 13:53:00
7:53 AM,43.0,36.0,76,29.65,10.0,South,11.5,27.6,0.01,,Overcast,180,2012-03-20 14:53:00
8:53 AM,44.1,35.1,71,29.66,10.0,South,13.8,23.0,N/A,,Mostly Cloudy,180,2012-03-20 15:53:00
9:49 AM,44.6,35.6,71,29.69,9.0,South,15.0,27.6,N/A,Rain,Light Rain,190,2012-03-20 16:49:00
9:53 AM,43.0,35.1,74,29.71,8.0,SSW,11.5,27.6,0.00,Rain,Light Rain,210,2012-03-20 16:53:00
10:13 AM,44.6,37.4,76,29.70,10.0,South,11.5,17.3,0.00,,Overcast,180,2012-03-20 17:13:00
10:53 AM,44.1,36.0,73,29.73,10.0,South,16.1,28.8,0.01,Rain,Light Rain,170,2012-03-20 17:53:00
11:53 AM,43.0,35.1,74,29.79,10.0,South,17.3,28.8,0.00,Rain,Light Rain,180,2012-03-20 18:53:00
12:53 PM,44.1,37.9,79,29.80,10.0,South,10.4,21.9,0.00,,Partly Cloudy,170,2012-03-20 19:53:00
1:53 PM,45.0,36.0,71,29.81,10.0,SSW,8.1,18.4,0.00,Rain,Light Rain,210,2012-03-20 20:53:00
2:02 PM,44.6,35.6,71,29.80,10.0,WSW,10.4,16.1,0.00,Rain,Light Rain,240,2012-03-20 21:02:00
2:28 PM,44.6,37.4,76,29.81,10.0,South,5.8,17.3,0.00,,Mostly Cloudy,180,2012-03-20 21:28:00
2:53 PM,46.0,36.0,68,29.83,10.0,South,13.8,20.7,0.00,Rain,Light Rain,170,2012-03-20 21:53:00
3:14 PM,42.8,35.6,76,29.83,7.0,South,17.3,23.0,0.00,Rain,Light Rain,170,2012-03-20 22:14:00
3:53 PM,42.1,36.0,79,29.88,10.0,South,11.5,20.7,0.01,,Overcast,170,2012-03-20 22:53:00
4:53 PM,42.1,36.0,79,29.90,10.0,South,11.5,17.3,0.00,Rain,Light Rain,180,2012-03-20 23:53:00
5:53 PM,43.0,35.1,74,29.89,10.0,SSE,8.1,-,0.00,,Overcast,160,2012-03-21 00:53:00
6:53 PM,41.0,35.1,79,29.92,10.0,SSE,8.1,-,N/A,,Overcast,150,2012-03-21 01:53:00
7:14 PM,39.2,35.6,87,29.92,4.0,South,12.7,17.3,0.03,Rain,Light Rain,180,2012-03-21 02:14:00
7:37 PM,39.2,35.6,87,29.92,10.0,South,4.6,-,0.03,Rain,Light Rain,170,2012-03-21 02:37:00
7:53 PM,39.9,36.0,86,29.94,10.0,SSE,6.9,17.3,0.03,Rain,Light Rain,150,2012-03-21 02:53:00
8:04 PM,39.2,37.4,93,29.92,10.0,SSE,5.8,-,0.00,Rain,Light Rain,150,2012-03-21 03:04:00
8:49 PM,39.2,35.6,87,29.94,10.0,SSE,8.1,-,0.00,,Overcast,160,2012-03-21 03:49:00
8:53 PM,39.9,36.0,86,29.96,10.0,SSE,8.1,-,0.00,,Overcast,150,2012-03-21 03:53:00
9:53 PM,37.0,35.1,93,29.97,10.0,SE,10.4,17.3,0.04,Rain,Light Rain,140,2012-03-21 04:53:00
10:19 PM,37.4,35.6,93,29.96,10.0,SE,9.2,-,0.00,,Overcast,140,2012-03-21 05:19:00
10:49 PM,37.4,35.6,93,29.97,10.0,SSE,9.2,-,0.00,,Overcast,150,2012-03-21 05:49:00
10:50 PM,37.0,35.1,93,29.99,10.0,SSE,10.4,-,0.00,,Mostly Cloudy,150,2012-03-21 05:50:00
11:48 PM,37.4,35.6,93,29.99,10.0,SSE,4.6,-,N/A,,Mostly Cloudy,150,2012-03-21 06:48:00
11:53 PM,37.9,35.1,89,30.00,10.0,SSE,6.9,-,N/A,,Mostly Cloudy,150,2012-03-21 06:53:00